Weather in Novoeniseyka

Russia / Republic of Khakassia     53°09′49″N   91°30′57″E
temp.,
°C
wind,
m/s
gust,
m/s
humid.,
%
clouds,
%
prec.,
mm/h
press.,
hPa
HPBL,
m
18 may, tue
tue1801:00+12sw229033 1.1 101421
04:00+10ssw1192100 0.1 101212
07:00+13sse128567 0.1 1011125
10:00+16wsw61275100 0.8 10061178
13:00+15wsw101877100 5.2 1004937
16:00+18wsw91677100 1.3 10011380
19:00+15nw4888100 16.5 1003456
22:00+11w11885 0.6 100710
19 may, wed
wed1901:00+10ne009093 0.6 100610
04:00+10se1192100 0.0 100520
07:00+11ene1294100 1.0 1002121
10:00+12sw51189100 4.2 1001756
13:00+14wsw71484100 6.4 9981162
16:00+9nnw7986100 10.6 1003704
19:00+6wnw3592100 14.8 1007754
22:00+6sw3490100 2.1 1008167
20 may, thu
thu2001:00+6sw369290 2.2 1007186
04:00+5wsw2384100 0.1 100865
07:00+6wsw347998 0.1 1008301
10:00+8nne345930 0.1 10071438
13:00+9nne3350100 0.2 10071603
16:00+10n5548100 0.0 10071695
19:00+9n6855100 0.1 1009928
22:00+6nw4854100 0.0 1012294
21 may, fri
fri2101:00+5wnw4862100 0.3 1014352
04:00+3wnw51058100 0.0 1016381
07:00+4wnw586595 0.0 1019585
10:00+7wnw3446100 0.0 10201541
13:00+9w5548100 0.1 10211831
16:00+11w4638100 0.1 10202327
19:00+8nnw4560100 0.1 1023804
22:00+5sw387482 0.0 1024195
22 may, sat
sat2201:00+5sw5107859 0.1 1026291
04:00+4ssw388096 0.0 1026204
07:00+5sw377486 0.0 1027345
10:00+10w55515 0.0 10261130
13:00+13w44435 0.1 10231796
16:00+14w453911 0.0 10222072
19:00+13wnw3652100 0.0 1021291
22:00+8ne006880 0.0 102310